Date,TemperatureHighF,TemperatureAvgF,TemperatureLowF,DewpointHighF,DewpointAvgF,DewpointLowF,HumidityHigh,HumidityAvg,HumidityLow,PressureMaxIn,PressureMinIn,WindSpeedMaxMPH,WindSpeedAvgMPH,GustSpeedMaxMPH,PrecipitationSumIn
2012-1-1,49.0,38.2,29.0,35.0,22.3,11.0,88,55,30,30.42,29.73,24,17,36,0.00
2012-1-2,31.0,25.6,17.0,16.0,10.5,4.0,70,53,35,30.54,30.39,25,14,36,0.00
2012-1-3,39.0,25.9,12.0,14.0,9.9,5.0,85,54,24,30.55,30.09,13,7,18,0.00
2012-1-4,48.0,36.8,29.0,31.0,24.5,14.0,80,62,42,30.24,30.04,14,8,21,0.00
2012-1-5,62.0,45.0,31.0,34.0,29.6,25.0,79,57,33,30.18,29.88,12,7,17,0.00
2012-1-6,64.0,48.9,38.0,35.0,32.0,28.0,72,53,31,29.99,29.78,16,8,24,0.00
2012-1-7,49.0,37.9,29.0,30.0,26.5,23.0,81,65,40,30.28,29.99,10,3,15,0.00
2012-1-8,43.0,33.1,23.0,32.0,27.7,21.0,95,81,59,30.37,30.27,6,2,13,0.00
2012-1-9,48.0,33.5,20.0,33.0,25.8,19.0,97,76,45,30.31,30.14,10,3,14,0.00
2012-1-10,59.0,39.9,25.0,31.0,26.3,22.0,89,62,27,30.14,29.80,9,2,14,0.00
2012-1-11,56.0,37.9,26.0,34.0,27.1,22.0,89,68,31,29.80,29.61,21,5,31,0.00
2012-1-12,27.0,16.2,12.0,22.0,13.3,8.0,96,88,79,29.95,29.78,24,16,37,0.00
2012-1-13,20.0,14.4,9.0,10.0,8.2,5.0,85,76,62,30.16,29.95,16,9,22,0.00
2012-1-14,31.0,23.5,10.0,25.0,17.4,7.0,91,78,60,30.29,29.98,12,6,21,0.00
2012-1-15,48.0,33.2,18.0,30.0,24.0,15.0,92,71,46,30.31,29.99,20,10,27,0.00
2012-1-16,68.0,52.3,38.0,50.0,41.2,30.0,84,67,46,29.99,29.69,19,9,29,0.00
2012-1-17,47.0,28.5,17.0,42.0,23.7,10.0,96,82,69,30.40,29.67,21,13,32,0.00
2012-1-18,35.0,22.5,10.0,20.0,13.0,7.0,89,68,41,30.41,29.95,12,6,29,0.00
2012-1-19,31.0,23.1,13.0,23.0,14.0,5.0,81,68,53,30.19,29.91,16,9,22,0.00
2012-1-20,24.0,18.7,12.0,20.0,11.2,5.0,91,72,58,30.19,29.89,14,10,21,0.00
2012-1-21,29.0,22.7,16.0,26.0,18.2,14.0,95,83,67,30.26,29.98,13,8,21,0.00
2012-1-22,52.0,37.1,27.0,48.0,35.5,26.0,99,95,87,30.00,29.44,17,10,31,0.00
2012-1-23,46.0,34.3,25.0,44.0,28.6,21.0,97,80,66,30.11,29.44,27,12,34,0.00
2012-1-24,47.0,31.1,20.0,29.0,24.1,18.0,94,77,47,30.33,30.11,5,2,8,0.00
2012-1-25,37.0,33.0,31.0,34.0,29.8,26.0,96,88,75,30.32,30.03,10,6,15,0.00
2012-1-26,41.0,35.3,32.0,36.0,32.9,30.0,98,91,77,30.03,29.79,12,4,18,0.00
2012-1-27,39.0,33.1,25.0,32.0,28.4,23.0,98,84,59,30.09,29.86,11,4,16,0.00
2012-1-28,41.0,32.5,25.0,32.0,23.7,20.0,98,71,48,30.35,30.09,15,10,24,0.00
2012-1-29,44.0,35.1,29.0,25.0,18.6,13.0,73,53,29,30.30,30.19,12,7,17,0.00
2012-1-30,67.0,48.2,31.0,41.0,32.6,23.0,78,56,32,30.19,29.96,18,9,27,0.00
2012-1-31,61.0,52.5,42.0,51.0,44.0,35.0,93,73,64,30.07,29.91,18,8,28,0.00
2012-2-1,55.0,41.8,32.0,40.0,35.4,30.0,95,79,51,30.22,30.07,8,1,13,0.00
2012-2-2,64.0,45.2,29.0,38.0,32.1,27.0,94,65,29,30.34,30.22,8,2,13,0.00
2012-2-3,53.0,44.4,38.0,42.0,35.2,30.0,95,72,43,30.34,30.10,19,8,28,0.00
2012-2-4,44.0,41.9,38.0,42.0,40.5,37.0,96,95,92,30.21,30.06,13,9,20,0.00
2012-2-5,48.0,38.0,29.0,37.0,33.3,29.0,98,85,54,30.36,30.21,10,6,14,0.00
2012-2-6,44.0,33.5,28.0,34.0,30.4,28.0,99,89,63,30.35,30.22,10,5,16,0.00
2012-2-7,40.0,33.0,30.0,33.0,30.0,27.0,98,89,72,30.41,30.23,10,5,16,0.00
2012-2-8,34.0,31.0,29.0,31.0,27.3,21.0,99,86,66,30.49,30.40,8,5,16,0.00
2012-2-9,35.0,29.6,23.0,30.0,24.3,19.0,90,80,71,30.42,30.17,6,3,13,0.00
2012-2-10,37.0,29.4,18.0,35.0,23.7,11.0,94,79,63,30.38,30.04,19,11,28,0.00
2012-2-11,28.0,18.6,11.0,11.0,4.8,0.0,77,56,32,30.63,30.38,19,12,26,0.00
2012-2-12,35.0,22.5,10.0,18.0,6.5,2.0,75,53,26,30.61,30.27,10,6,16,0.00
2012-2-13,31.0,29.4,26.0,30.0,24.3,12.0,97,84,44,30.27,29.87,13,8,21,0.00
2012-2-14,38.0,32.8,30.0,32.0,30.5,28.0,98,91,78,30.03,29.85,10,5,14,0.00
2012-2-15,43.0,37.8,32.0,41.0,35.8,30.0,97,93,86,30.04,29.95,9,4,12,0.00
2012-2-16,48.0,39.1,30.0,39.0,33.0,26.0,98,80,47,30.28,30.01,12,5,18,0.00
2012-2-17,55.0,40.5,29.0,36.0,31.2,27.0,91,71,44,30.27,30.11,13,5,21,0.00
2012-2-18,46.0,35.6,27.0,30.0,25.8,24.0,87,69,44,30.26,30.16,10,6,16,0.00
2012-2-19,46.0,34.0,28.0,25.0,22.9,18.0,87,66,35,30.22,30.15,9,4,17,0.00
2012-2-20,48.0,37.4,26.0,34.0,25.8,21.0,87,65,43,30.24,29.79,17,9,25,0.00
2012-2-21,51.0,42.9,38.0,39.0,33.3,27.0,92,71,39,29.92,29.70,18,10,27,0.00
2012-2-22,54.0,43.7,36.0,36.0,31.2,27.0,82,62,46,29.81,29.51,16,7,26,0.00
2012-2-23,64.0,49.0,38.0,44.0,38.3,30.0,86,69,41,29.60,29.32,23,8,36,0.00
2012-2-24,42.0,36.1,29.0,32.0,25.8,19.0,92,67,44,30.19,29.60,24,15,40,0.00
2012-2-25,40.0,31.0,23.0,25.0,16.5,13.0,77,56,34,30.37,30.18,16,9,22,0.00
2012-2-26,62.0,45.4,30.0,33.0,25.1,17.0,66,47,27,30.21,30.02,23,12,35,0.00
2012-2-27,49.0,37.6,28.0,33.0,21.9,16.0,83,56,30,30.51,30.18,14,6,19,0.00
2012-2-28,61.0,46.0,32.0,55.0,32.9,22.0,88,61,40,30.44,29.64,15,10,26,0.00
2012-2-29,61.0,52.1,38.0,57.0,36.5,27.0,86,57,33,29.90,29.60,30,16,45,0.00
2012-3-1,62.0,45.1,28.0,33.0,29.8,24.0,88,59,31,29.96,29.61,15,4,23,0.00
2012-3-2,44.0,37.8,32.0,37.0,32.9,29.0,94,83,61,29.89,29.46,20,7,31,0.00
2012-3-3,41.0,33.3,25.0,29.0,23.0,19.0,81,67,49,29.99,29.88,18,9,26,0.00
2012-3-4,41.0,31.9,20.0,29.0,23.1,16.0,91,71,53,30.17,29.90,19,3,26,0.00
2012-3-5,50.0,36.8,23.0,27.0,23.3,20.0,88,61,32,30.44,30.14,13,7,21,0.00
2012-3-6,73.0,58.7,41.0,39.0,30.4,26.0,55,36,18,30.14,29.92,26,15,37,0.00
2012-3-7,70.0,63.6,40.0,54.0,47.2,22.0,74,55,45,30.00,29.92,25,14,36,0.00
2012-3-8,64.0,39.5,32.0,52.0,31.1,25.0,94,73,47,30.49,29.95,22,9,30,0.00
2012-3-9,55.0,40.2,30.0,27.0,21.8,16.0,79,52,22,30.61,30.49,11,4,18,0.00
2012-3-10,65.0,45.2,28.0,31.0,26.0,-99.9,84,53,23,30.50,30.27,12,4,18,0.00
2012-3-11,58.0,47.0,35.0,51.0,39.7,27.0,94,77,46,30.28,29.96,16,8,23,0.00
2012-3-12,75.0,62.0,53.0,54.0,51.7,48.0,95,72,39,30.02,29.83,19,9,30,0.00
2012-3-13,80.0,60.5,40.0,57.0,48.3,38.0,96,69,31,30.15,30.02,8,3,13,0.00
2012-3-14,82.0,67.9,52.0,62.0,56.6,47.0,92,69,47,30.08,29.98,17,8,26,0.00
2012-3-15,81.0,68.0,60.0,64.0,58.6,54.0,87,72,54,30.13,30.02,26,7,40,0.00
2012-3-16,77.0,67.2,58.0,63.0,58.3,53.0,87,74,60,30.11,30.02,16,8,23,0.00
2012-3-17,78.0,62.6,56.0,63.0,57.4,53.0,95,84,59,30.09,29.96,18,6,30,0.00
2012-3-18,79.0,65.9,56.0,63.0,57.7,54.0,94,77,52,30.08,29.96,15,7,21,0.00
2012-3-19,81.0,71.8,64.0,63.0,58.4,49.0,89,65,42,29.99,29.80,21,10,30,0.00
2012-3-20,80.0,67.0,58.0,60.0,54.2,-99.9,91,69,38,30.04,29.87,25,10,33,0.00
2012-3-21,76.0,66.5,58.0,59.0,54.5,49.0,92,68,39,30.06,29.95,15,5,22,0.00
2012-3-22,72.0,57.9,51.0,58.0,51.1,48.0,94,79,58,30.09,29.96,16,6,30,0.00
2012-3-23,65.0,54.9,50.0,54.0,49.8,47.0,93,83,61,30.01,29.84,10,4,17,0.00
2012-3-24,68.0,57.4,49.0,59.0,53.1,47.0,93,86,68,30.04,29.87,12,4,18,0.00
2012-3-25,77.0,61.2,47.0,59.0,53.7,46.0,98,79,47,30.15,30.04,6,2,11,0.00
2012-3-26,69.0,59.1,48.0,54.0,50.3,46.0,97,75,54,30.24,30.10,14,7,21,0.00
2012-3-27,81.0,66.2,51.0,57.0,50.3,44.0,77,58,36,30.12,29.92,16,10,27,0.00
2012-3-28,80.0,67.9,56.0,57.0,47.4,38.0,88,52,23,30.10,29.97,7,3,11,0.00
2012-3-29,65.0,57.7,51.0,57.0,51.4,43.0,92,81,46,30.10,29.85,13,5,19,0.00
2012-3-30,74.0,63.7,54.0,62.0,55.9,49.0,89,76,58,29.91,29.76,14,7,21,0.00
2012-3-31,78.0,60.6,47.0,61.0,53.5,45.0,93,79,54,29.97,29.81,10,5,16,0.00
2012-4-1,86.0,70.6,57.0,66.0,56.9,52.0,90,65,31,29.80,29.63,14,5,21,0.00
2012-4-2,89.0,73.8,60.0,64.0,57.6,51.0,87,60,29,29.83,29.65,9,4,18,0.00
2012-4-3,79.0,67.7,60.0,61.0,58.4,55.0,93,73,50,29.92,29.82,12,5,16,0.00
2012-4-4,61.0,56.8,53.0,59.0,51.1,37.0,93,81,54,29.93,29.81,13,7,21,0.00
2012-4-5,57.0,47.5,42.0,47.0,41.1,36.0,95,79,56,30.12,29.84,18,8,24,0.00
2012-4-6,59.0,47.0,33.0,42.0,35.9,29.0,87,66,47,30.30,30.12,10,6,16,0.00
2012-4-7,62.0,50.9,40.0,50.0,43.0,36.0,91,75,55,30.34,30.20,10,5,16,0.00
2012-4-8,65.0,53.3,37.0,45.0,37.1,29.0,94,60,26,30.43,30.21,7,3,12,0.00
2012-4-9,68.0,56.3,43.0,42.0,35.3,30.0,75,49,25,30.23,30.12,16,6,27,0.00
2012-4-10,59.0,49.4,38.0,36.0,27.5,24.0,61,43,31,30.29,30.15,13,6,21,0.00
2012-4-11,57.0,44.1,32.0,32.0,27.3,24.0,74,53,31,30.38,30.22,8,3,15,0.00
2012-4-12,65.0,49.6,32.0,36.0,31.5,28.0,89,55,28,30.32,30.12,12,4,24,0.00
2012-4-13,55.0,50.7,47.0,52.0,44.2,37.0,91,79,53,30.14,30.00,16,10,25,0.00
2012-4-14,75.0,62.4,54.0,65.0,57.3,-99.9,95,86,69,30.02,29.74,16,8,23,0.00
2012-4-15,70.0,66.7,58.0,64.0,59.3,52.0,91,77,68,29.80,29.61,20,12,29,0.00
2012-4-16,63.0,55.2,48.0,52.0,44.6,41.0,87,68,51,30.29,29.67,24,12,36,0.00
2012-4-17,69.0,56.4,43.0,50.0,44.4,39.0,90,67,38,30.40,30.28,9,3,14,0.00
2012-4-18,74.0,60.8,47.0,52.0,48.4,44.0,90,66,42,30.28,30.02,12,6,20,0.00
2012-4-19,78.0,64.7,53.0,54.0,49.6,47.0,80,60,37,30.04,29.76,16,7,22,0.00
2012-4-20,65.0,49.6,44.0,57.0,44.2,39.0,93,82,58,30.09,29.76,14,8,22,0.00
2012-4-21,63.0,48.6,35.0,43.0,38.6,34.0,97,71,42,30.13,30.00,8,2,13,0.00
2012-4-22,57.0,47.6,41.0,45.0,40.1,35.0,94,77,52,30.21,29.94,14,6,23,0.00
2012-4-23,62.0,49.6,35.0,43.0,37.5,33.0,90,66,42,30.20,30.01,15,5,28,0.00
2012-4-24,78.0,60.4,43.0,55.0,46.3,38.0,80,62,42,30.01,29.68,15,6,23,0.00
2012-4-25,88.0,71.3,54.0,63.0,57.5,50.0,90,64,40,29.70,29.59,12,5,22,0.00
2012-4-26,76.0,67.5,57.0,63.0,54.1,42.0,80,63,47,30.09,29.68,11,6,17,0.00
2012-4-27,58.0,52.3,45.0,43.0,32.6,23.0,68,48,33,30.20,29.89,22,13,35,0.00
2012-4-28,73.0,60.9,54.0,60.0,52.1,-99.9,87,75,56,30.11,29.84,15,8,26,0.00
2012-4-29,59.0,53.0,48.0,57.0,50.6,44.0,97,92,85,30.17,30.01,16,7,25,0.00
2012-4-30,66.0,60.5,55.0,61.0,58.2,54.0,98,92,83,30.05,29.93,14,5,25,0.00
2012-5-1,80.0,67.8,56.0,69.0,62.1,54.0,96,83,61,30.03,29.83,15,7,22,0.00
2012-5-2,79.0,72.5,68.0,66.0,63.8,63.0,83,74,62,29.98,29.83,17,8,25,0.00
2012-5-3,84.0,76.7,70.0,70.0,67.8,65.0,84,74,61,30.06,29.89,13,7,21,0.00
2012-5-4,80.0,70.8,62.0,70.0,65.1,60.0,93,83,67,30.09,29.90,15,5,22,0.00
2012-5-5,89.0,78.1,68.0,73.0,68.3,-99.9,94,75,53,29.97,29.90,6,2,11,0.00
2012-5-6,89.0,75.4,65.0,74.0,67.1,60.0,92,76,54,29.96,29.87,16,4,28,0.00
2012-5-7,71.0,65.6,58.0,63.0,59.7,51.0,92,81,68,30.03,29.84,11,5,18,0.00
2012-5-8,71.0,62.6,55.0,52.0,47.3,42.0,84,60,37,30.08,30.00,13,5,22,0.00
2012-5-9,68.0,58.3,48.0,51.0,47.6,44.0,89,69,49,30.09,30.00,11,4,18,0.00
2012-5-10,76.0,63.0,47.0,55.0,48.7,45.0,94,64,35,30.07,29.99,5,1,11,0.00
2012-5-11,77.0,65.2,54.0,55.0,51.8,47.0,80,63,45,30.19,30.06,10,4,16,0.00
2012-5-12,75.0,64.7,55.0,61.0,55.7,-99.9,91,76,59,30.26,30.19,11,3,17,0.00
2012-5-13,75.0,63.4,54.0,56.0,50.3,45.0,95,66,39,30.28,30.18,9,4,16,0.00
2012-5-14,81.0,65.5,48.0,53.0,45.1,38.0,90,53,24,30.21,30.10,6,1,14,0.00
2012-5-15,81.0,68.4,50.0,54.0,50.1,44.0,83,54,35,30.13,30.00,12,5,17,0.00
2012-5-16,77.0,66.4,56.0,55.0,50.3,45.0,80,58,37,30.14,30.02,8,4,15,0.00
2012-5-17,79.0,65.7,51.0,47.0,41.5,35.0,67,43,26,30.17,30.04,8,4,16,0.00
2012-5-18,86.0,71.7,54.0,60.0,51.9,46.0,74,52,32,30.07,29.95,10,5,15,0.00
2012-5-19,88.0,75.4,61.0,62.0,57.3,-99.9,74,56,39,30.07,29.97,14,6,22,0.00
2012-5-20,85.0,75.2,62.0,66.0,60.4,53.0,73,61,46,30.18,30.04,14,8,23,0.00
2012-5-21,73.0,62.2,51.0,53.0,45.1,40.0,85,56,32,30.26,30.16,13,6,23,0.00
2012-5-22,81.0,64.9,45.0,51.0,45.9,41.0,89,55,30,30.16,29.95,7,2,12,0.00
2012-5-23,83.0,70.7,56.0,54.0,50.3,48.0,76,51,31,29.95,29.72,15,8,28,0.00
2012-5-24,91.0,78.0,66.0,67.0,54.8,47.0,71,46,26,29.81,29.62,21,11,35,0.00
2012-5-25,85.0,76.4,68.0,69.0,64.8,58.0,85,68,50,30.07,29.82,13,7,19,0.00
2012-5-26,92.0,81.0,69.0,72.0,68.4,65.0,87,67,46,30.10,29.98,11,4,18,0.00
2012-5-27,92.0,81.4,70.0,70.0,61.5,56.0,78,54,30,30.05,29.87,14,7,24,0.00
2012-5-28,90.0,81.9,74.0,68.0,63.9,61.0,73,55,43,29.90,29.82,20,10,31,0.00
2012-5-29,88.0,75.6,62.0,65.0,52.3,42.0,84,48,21,29.98,29.89,10,4,16,0.00
2012-5-30,82.0,69.6,58.0,57.0,49.8,45.0,88,52,29,30.05,29.89,9,3,13,0.00
2012-5-31,64.0,58.4,52.0,54.0,49.4,46.0,93,74,54,29.99,29.80,12,8,20,0.00
2012-6-1,69.0,57.4,47.0,48.0,43.6,39.0,94,64,33,30.04,29.96,14,7,22,0.00
2012-6-2,79.0,65.1,52.0,53.0,47.4,-99.9,75,56,33,29.98,29.86,18,7,25,0.00
2012-6-3,86.0,70.3,51.0,61.0,54.0,47.0,87,60,34,29.98,29.88,12,3,18,0.00
2012-6-4,90.0,74.5,59.0,68.0,62.6,57.0,93,68,40,29.96,29.82,15,7,22,0.00
2012-6-5,83.0,70.5,54.0,59.0,53.1,48.0,95,59,35,30.04,29.96,12,4,22,0.00
2012-6-6,80.0,68.9,54.0,53.0,49.7,47.0,82,52,32,30.13,30.02,10,4,18,0.00
2012-6-7,83.0,70.6,52.0,54.0,48.3,46.0,86,48,28,30.20,30.12,8,2,16,0.00
2012-6-8,86.0,70.3,54.0,56.0,49.6,46.0,85,53,26,30.17,30.00,9,3,23,0.00
2012-6-9,90.0,76.8,59.0,61.0,53.9,-99.9,74,49,28,30.02,29.85,12,6,20,0.00
2012-6-10,88.0,77.5,67.0,66.0,63.0,58.0,78,62,45,29.95,29.86,15,8,22,0.00
2012-6-11,78.0,72.2,67.0,68.0,65.7,62.0,94,80,66,30.04,29.85,18,4,25,0.00
2012-6-12,79.0,69.3,59.0,62.0,51.0,44.0,87,56,30,30.21,30.04,10,4,15,0.00
2012-6-13,80.0,67.5,51.0,55.0,51.4,47.0,91,59,36,30.22,30.08,9,4,13,0.00
2012-6-14,88.0,74.2,59.0,58.0,53.8,51.0,80,52,29,30.12,29.95,10,5,18,0.00
2012-6-15,90.0,77.5,64.0,69.0,60.5,55.0,89,57,41,30.07,29.94,16,7,26,0.00
2012-6-16,93.0,78.8,70.0,70.0,65.7,-99.9,94,69,34,30.11,29.94,17,6,26,0.00
2012-6-17,86.0,76.8,68.0,71.0,67.9,66.0,95,76,55,30.05,29.84,10,4,16,0.00
2012-6-18,92.0,81.9,73.0,68.0,65.7,61.0,78,59,41,29.89,29.80,19,11,27,0.00
2012-6-19,90.0,82.0,74.0,69.0,66.6,64.0,79,61,45,30.00,29.89,16,10,25,0.00
2012-6-20,92.0,82.9,74.0,67.0,64.9,63.0,70,56,40,30.06,29.95,15,9,26,0.00
2012-6-21,85.0,76.2,65.0,69.0,62.5,57.0,83,64,41,30.10,30.00,14,5,22,0.00
2012-6-22,86.0,73.4,59.0,62.0,56.4,50.0,91,60,30,30.13,30.03,9,2,14,0.00
2012-6-23,86.0,74.1,61.0,63.0,58.6,55.0,84,60,40,30.10,29.96,12,4,17,0.00
2012-6-24,98.0,82.9,68.0,72.0,62.4,54.0,67,52,33,30.04,29.92,11,4,16,0.00
2012-6-25,86.0,78.2,65.0,68.0,62.2,47.0,88,60,38,30.04,29.94,15,6,21,0.00
2012-6-26,86.0,72.2,55.0,54.0,50.4,46.0,77,49,29,30.07,29.94,10,6,16,0.00
2012-6-27,99.0,90.6,71.0,66.0,58.5,48.0,53,35,27,30.02,29.89,12,8,18,0.00
2012-6-28,97.0,83.0,72.0,69.0,62.0,56.0,61,50,33,30.00,29.92,13,6,21,0.00
2012-6-29,101.0,83.8,67.0,66.0,61.7,58.0,78,50,25,30.00,29.84,13,4,19,0.00
2012-6-30,98.0,86.8,70.0,71.0,65.3,60.0,78,52,29,29.94,29.86,11,4,16,0.00
2012-7-1,95.0,82.6,71.0,69.0,65.7,62.0,80,59,33,30.07,29.92,7,2,12,0.00
2012-7-2,98.0,82.8,70.0,69.0,65.7,58.0,85,59,27,30.06,29.98,18,4,28,0.00
2012-7-3,97.0,84.4,70.0,71.0,66.9,64.0,86,59,35,30.04,29.90,12,5,18,0.00
2012-7-4,100.0,87.0,75.0,70.0,63.9,57.0,74,50,25,30.03,29.94,12,5,20,0.00
2012-7-5,101.0,87.4,71.0,70.0,64.7,61.0,80,51,27,30.06,29.98,9,3,14,0.00
2012-7-6,105.0,90.1,75.0,71.0,66.2,61.0,81,49,25,30.06,29.98,8,2,12,0.00
2012-7-7,106.0,89.9,73.0,71.0,65.3,58.0,80,48,22,30.06,29.96,13,3,24,0.00
2012-7-8,93.0,83.4,74.0,71.0,68.8,67.0,79,62,47,30.09,30.00,14,6,20,0.00
2012-7-9,91.0,81.3,70.0,69.0,60.1,53.0,83,52,28,30.12,30.04,13,6,20,0.00
2012-7-10,95.0,80.7,64.0,64.0,59.8,56.0,81,52,28,30.11,30.03,12,4,17,0.00
2012-7-11,92.0,79.6,71.0,61.0,57.3,50.0,61,47,32,30.16,30.05,10,6,16,0.00
2012-7-12,96.0,82.1,65.0,63.0,60.0,56.0,86,52,27,30.10,30.03,10,3,15,0.00
2012-7-13,97.0,78.2,68.0,69.0,63.5,57.0,95,65,28,30.14,30.01,21,4,37,0.00
2012-7-14,94.0,78.9,67.0,71.0,66.9,59.0,94,70,36,30.13,30.03,7,2,11,0.00
2012-7-15,95.0,82.0,70.0,70.0,67.3,63.0,90,64,37,30.16,30.04,7,3,18,0.00
2012-7-16,95.0,83.9,72.0,73.0,68.9,66.0,88,63,40,30.08,29.92,10,4,16,0.00
2012-7-17,97.0,86.1,74.0,73.0,68.1,63.0,84,58,33,30.00,29.90,13,6,19,0.00
2012-7-18,101.0,88.2,74.0,72.0,67.2,62.0,83,54,29,30.01,29.89,11,5,18,0.00
2012-7-19,100.0,87.9,75.0,70.0,65.9,57.0,81,51,25,30.03,29.91,14,7,21,0.00
2012-7-20,86.0,76.2,68.0,68.0,65.0,63.0,90,70,46,30.14,30.03,11,7,18,0.00
2012-7-21,94.0,79.4,63.0,66.0,60.7,51.0,92,58,24,30.17,30.07,9,4,16,0.00
2012-7-22,102.0,85.3,68.0,65.0,59.5,54.0,78,46,22,30.17,30.05,10,4,17,0.00
2012-7-23,103.0,88.9,75.0,70.0,64.2,60.0,71,47,26,30.13,30.01,13,6,20,0.00
2012-7-24,102.0,89.8,78.0,70.0,65.3,62.0,65,47,28,30.06,29.90,12,5,17,0.00
2012-7-25,103.0,90.1,78.0,67.0,64.3,61.0,66,45,27,29.93,29.74,16,7,23,0.00
2012-7-26,88.0,80.9,71.0,72.0,68.0,62.0,92,66,42,29.96,29.75,16,6,25,0.00
2012-7-27,91.0,79.4,68.0,69.0,61.3,53.0,88,58,28,30.08,29.91,14,6,22,0.00
2012-7-28,92.0,77.3,61.0,64.0,59.5,56.0,90,58,31,30.20,30.08,13,4,17,0.00
2012-7-29,92.0,77.5,67.0,70.0,65.7,59.0,94,69,44,30.18,29.94,14,6,20,0.00
2012-7-30,83.0,76.6,71.0,74.0,69.8,67.0,94,80,65,29.99,29.92,11,4,15,0.00
2012-7-31,101.0,83.2,66.0,73.0,66.6,59.0,96,64,26,30.03,29.93,7,3,13,0.00
2012-8-1,101.0,84.8,68.0,70.0,62.2,55.0,88,51,23,30.00,29.88,8,4,13,0.00
2012-8-2,93.0,81.3,71.0,75.0,65.3,56.0,85,59,44,29.92,29.79,10,5,16,0.00
2012-8-3,97.0,83.6,72.0,74.0,71.0,69.0,94,69,41,29.90,29.84,9,5,20,0.00
2012-8-4,98.0,85.2,77.0,74.0,71.1,66.0,86,65,38,30.05,29.86,13,7,21,0.00
2012-8-5,90.0,79.3,67.0,71.0,58.6,50.0,84,54,26,30.22,30.05,13,6,26,0.00
2012-8-6,96.0,77.9,58.0,59.0,54.4,46.0,88,51,20,30.22,30.05,7,3,11,0.00
2012-8-7,101.0,83.4,63.0,62.0,55.7,50.0,82,44,18,30.07,29.97,7,3,12,0.00
2012-8-8,93.0,78.0,69.0,68.0,61.6,55.0,85,59,29,30.08,29.92,12,5,20,0.00
2012-8-9,92.0,76.5,65.0,65.0,62.8,61.0,92,66,36,30.01,29.87,15,6,23,0.00
2012-8-10,79.0,69.5,61.0,61.0,56.1,51.0,91,65,37,30.07,29.95,14,7,22,0.00
2012-8-11,87.0,70.0,52.0,57.0,49.5,43.0,93,55,22,30.12,30.01,11,3,17,0.00
2012-8-12,84.0,70.9,59.0,63.0,55.8,49.0,77,60,42,30.07,29.89,12,5,17,0.00
2012-8-13,74.0,69.2,62.0,61.0,59.4,56.0,84,71,53,30.07,29.88,14,7,20,0.00
2012-8-14,80.0,68.4,54.0,60.0,56.7,53.0,96,69,44,30.10,30.01,7,3,12,0.00
2012-8-15,92.0,72.9,52.0,60.0,55.8,50.0,95,61,30,30.05,29.89,11,5,18,0.00
2012-8-16,90.0,78.5,68.0,68.0,61.7,53.0,73,57,43,30.08,29.89,18,9,25,0.00
2012-8-17,83.0,68.7,54.0,56.0,47.4,41.0,86,51,24,30.14,30.04,9,5,17,0.00
2012-8-18,85.0,68.2,49.0,52.0,45.4,41.0,85,49,24,30.10,29.95,8,3,12,0.00
2012-8-19,83.0,71.5,58.0,52.0,46.4,37.0,72,44,19,30.05,29.98,11,5,19,0.00
2012-8-20,84.0,68.1,51.0,56.0,49.7,46.0,86,55,29,30.08,30.00,16,4,23,0.00
2012-8-21,90.0,73.4,56.0,54.0,49.7,46.0,81,49,22,30.10,30.04,8,4,15,0.00
2012-8-22,98.0,79.0,61.0,56.0,50.9,45.0,77,43,16,30.12,30.03,7,4,13,0.00
2012-8-23,97.0,81.8,65.0,56.0,51.4,47.0,67,38,19,30.14,30.01,10,5,17,0.00
2012-8-24,93.0,80.4,67.0,56.0,52.7,49.0,63,41,23,30.10,29.99,15,6,22,0.00
2012-8-25,91.0,77.1,65.0,68.0,61.2,55.0,84,60,39,30.05,29.97,16,8,26,0.00
2012-8-26,84.0,75.8,72.0,71.0,69.2,67.0,90,80,59,30.06,30.00,13,7,20,0.00
2012-8-27,92.0,77.7,67.0,70.0,63.1,53.0,95,66,26,30.19,30.05,13,6,20,0.00
2012-8-28,95.0,78.1,60.0,63.0,56.6,51.0,87,53,23,30.20,30.05,12,3,17,0.00
2012-8-29,94.0,79.7,66.0,61.0,57.7,55.0,79,50,27,30.13,30.00,10,5,15,0.00
2012-8-30,97.0,81.4,63.0,63.0,56.8,49.0,87,48,20,30.09,29.98,11,5,17,0.00
2012-8-31,77.0,74.0,72.0,73.0,67.9,58.0,95,82,52,30.10,29.91,17,8,27,0.00
2012-9-1,77.0,74.0,72.0,72.0,70.9,70.0,94,90,79,29.91,29.83,10,5,16,0.00
2012-9-2,82.0,73.8,69.0,71.0,70.0,68.0,96,89,69,29.95,29.86,11,7,18,0.00
2012-9-3,92.0,78.4,67.0,72.0,69.1,66.0,96,76,46,30.00,29.92,8,4,18,0.00
2012-9-4,96.0,80.3,72.0,72.0,68.5,62.0,92,71,34,30.00,29.88,9,4,14,0.00
2012-9-5,85.0,74.9,67.0,70.0,67.5,62.0,92,79,54,30.00,29.85,21,5,29,0.00
2012-9-6,91.0,77.0,67.0,69.0,63.8,51.0,93,69,26,30.04,29.93,10,4,14,0.00
2012-9-7,85.0,69.6,61.0,68.0,63.4,57.0,92,82,54,30.03,29.84,19,6,31,0.00
2012-9-8,73.0,62.6,52.0,57.0,50.6,47.0,94,68,40,30.12,30.01,15,7,22,0.00
2012-9-9,74.0,63.0,52.0,53.0,50.4,48.0,88,66,42,30.22,29.99,13,6,21,0.00
2012-9-10,79.0,62.9,48.0,54.0,50.1,46.0,94,68,36,30.27,30.13,10,4,18,0.00
2012-9-11,86.0,69.2,54.0,58.0,54.4,51.0,92,64,31,30.19,30.09,12,6,20,0.00
2012-9-12,86.0,70.8,57.0,60.0,56.5,54.0,89,64,34,30.21,30.11,12,6,20,0.00
2012-9-13,70.0,62.0,51.0,60.0,54.9,47.0,93,78,59,30.40,30.18,16,7,23,0.00
2012-9-14,69.0,57.9,51.0,52.0,50.0,47.0,95,78,47,30.43,30.36,10,7,16,0.00
2012-9-15,71.0,60.8,50.0,53.0,49.1,46.0,90,67,44,30.36,30.20,13,4,18,0.00
2012-9-16,77.0,63.3,50.0,61.0,55.4,47.0,93,76,57,30.20,30.04,8,3,13,0.00
2012-9-17,77.0,64.7,54.0,67.0,60.3,48.0,96,86,62,30.04,29.85,14,4,23,0.00
2012-9-18,66.0,54.9,46.0,48.0,42.7,36.0,95,68,35,30.13,29.99,13,6,19,0.00
2012-9-19,77.0,60.3,42.0,50.0,43.7,38.0,86,58,33,30.14,29.95,17,8,25,0.00
2012-9-20,74.0,63.7,51.0,52.0,41.7,30.0,86,50,20,30.07,29.96,13,5,21,0.00
2012-9-21,82.0,65.8,52.0,58.0,47.7,42.0,81,55,27,30.07,29.76,19,7,30,0.00
2012-9-22,65.0,55.1,46.0,47.0,35.6,-99.9,88,54,23,30.30,29.97,15,7,23,0.00
2012-9-23,68.0,51.8,35.0,42.0,34.0,30.0,92,56,26,30.38,30.28,10,3,15,0.00
2012-9-24,74.0,56.2,37.0,50.0,40.2,34.0,88,59,30,30.30,29.96,13,6,18,0.00
2012-9-25,79.0,67.1,58.0,68.0,59.7,50.0,92,78,61,29.96,29.85,11,5,17,0.00
2012-9-26,73.0,66.5,61.0,65.0,62.6,59.0,95,87,72,30.15,29.92,13,4,18,0.00
2012-9-27,70.0,61.9,55.0,60.0,57.1,54.0,97,85,68,30.23,30.14,10,4,16,0.00
2012-9-28,73.0,61.5,49.0,57.0,46.9,42.0,88,62,33,30.25,30.16,11,4,16,0.00
2012-9-29,77.0,58.7,42.0,48.0,43.1,39.0,94,62,28,30.22,30.06,7,2,15,0.00
2012-9-30,78.0,61.7,49.0,50.0,46.0,42.0,83,60,29,30.06,29.92,9,3,14,0.00
2012-10-1,70.0,57.7,46.0,48.0,45.0,40.0,85,65,34,29.93,29.85,11,4,18,0.00
2012-10-2,74.0,62.8,41.0,50.0,43.3,38.0,90,53,29,29.94,29.88,10,4,17,0.00
2012-10-3,71.0,62.3,55.0,57.0,52.0,45.0,90,70,54,30.09,29.94,10,4,14,0.00
2012-10-4,76.0,60.4,47.0,56.0,51.2,43.0,91,74,48,30.28,30.09,14,8,22,0.00
2012-10-5,47.0,44.0,36.0,45.0,39.2,33.0,95,84,65,30.31,30.24,14,6,21,0.00
2012-10-6,48.0,40.6,34.0,34.0,31.7,28.0,92,72,49,30.33,30.27,11,6,18,0.00
2012-10-7,54.0,42.1,32.0,34.0,30.0,26.0,89,65,36,30.34,30.20,11,5,18,0.00
2012-10-8,60.0,45.9,32.0,35.0,31.9,28.0,88,62,34,30.22,30.07,14,7,22,0.00
2012-10-9,67.0,52.8,40.0,47.0,41.0,35.0,90,67,41,30.11,29.94,16,8,23,0.00
2012-10-10,57.0,45.3,34.0,41.0,33.0,29.0,93,66,34,30.33,30.11,11,5,18,0.00
2012-10-11,67.0,51.4,36.0,50.0,40.5,32.0,87,68,47,30.25,30.14,13,5,19,0.00
2012-10-12,62.0,53.6,47.0,50.0,42.6,36.0,86,67,53,30.42,30.24,16,9,23,0.00
2012-10-13,74.0,62.6,52.0,65.0,60.2,48.0,100,92,72,30.24,29.80,14,8,20,0.00
2012-10-14,69.0,61.4,49.0,65.0,56.9,45.0,100,86,64,30.00,29.64,21,11,31,0.00
2012-10-15,71.0,55.3,42.0,50.0,44.5,41.0,95,70,35,30.07,29.97,6,2,9,0.00
2012-10-16,80.0,63.4,49.0,53.0,48.0,45.0,93,62,32,29.97,29.62,18,8,30,0.00
2012-10-17,62.0,58.2,50.0,61.0,53.2,44.0,100,84,58,29.66,29.46,20,8,30,0.00
2012-10-18,56.0,49.3,44.0,44.0,37.5,32.0,88,65,42,29.65,29.59,19,12,30,0.00
2012-10-19,51.0,46.7,44.0,47.0,43.9,43.0,98,90,81,29.84,29.59,16,11,25,0.00
2012-10-20,65.0,52.7,46.0,49.0,45.8,43.0,94,79,55,29.95,29.84,7,4,12,0.00
2012-10-21,79.0,62.8,48.0,65.0,54.6,46.0,92,76,59,29.97,29.89,11,6,17,0.00
2012-10-22,78.0,70.3,64.0,68.0,65.6,62.0,96,86,69,29.96,29.90,12,8,18,0.00
2012-10-23,77.0,69.5,64.0,68.0,64.5,60.0,97,84,67,29.98,29.86,14,8,21,0.00
2012-10-24,82.0,72.0,63.0,68.0,63.2,60.0,93,75,57,29.97,29.87,14,8,21,0.00
2012-10-25,75.0,59.1,42.0,65.0,54.2,36.0,99,84,71,30.26,29.79,19,12,27,0.00
2012-10-26,48.0,40.6,33.0,35.0,30.9,29.0,87,69,51,30.43,30.26,16,10,23,0.00
2012-10-27,47.0,36.9,27.0,32.0,29.7,27.0,97,76,55,30.42,30.30,11,5,17,0.00
2012-10-28,50.0,38.4,28.0,32.0,29.6,27.0,95,73,43,30.36,30.29,9,4,15,0.00
2012-10-29,52.0,39.3,26.0,35.0,30.3,25.0,100,73,42,30.39,30.20,7,2,11,0.00
2012-10-30,55.0,42.5,31.0,33.0,30.1,27.0,91,64,38,30.20,29.97,14,6,21,0.00
2012-10-31,54.0,41.6,31.0,32.0,26.7,18.0,90,60,25,30.06,30.00,11,5,18,0.00
2012-11-1,67.0,48.5,33.0,44.0,35.2,24.0,78,62,41,30.05,29.91,9,3,13,0.00
2012-11-2,54.0,44.2,33.0,39.0,34.1,31.0,94,69,47,30.13,29.98,10,6,16,0.00
2012-11-3,52.0,44.1,33.0,40.0,36.3,32.0,97,75,63,30.25,30.02,11,6,17,0.00
2012-11-4,48.0,37.8,25.0,38.0,33.4,25.0,100,86,64,30.31,30.17,7,2,11,0.00
2012-11-5,42.0,40.6,40.0,41.0,39.4,37.0,100,95,83,30.17,30.09,13,8,18,0.00
2012-11-6,47.0,42.9,39.0,44.0,41.3,39.0,100,94,77,30.14,29.96,14,6,22,0.00
2012-11-7,46.0,43.2,34.0,41.0,37.0,32.0,91,79,67,30.22,30.00,13,5,19,0.00
2012-11-8,58.0,43.7,31.0,42.0,37.0,30.0,100,79,52,30.23,30.06,11,5,16,0.00
2012-11-9,70.0,56.7,43.0,56.0,48.2,40.0,90,74,56,30.07,29.91,12,7,19,0.00
2012-11-10,77.0,65.8,57.0,56.0,50.7,44.0,81,60,33,29.97,29.87,20,12,33,0.00
2012-11-11,68.0,53.9,32.0,58.0,48.6,28.0,100,84,67,30.19,29.76,22,13,34,0.00
2012-11-12,41.0,32.9,26.0,28.0,23.9,21.0,87,71,45,30.46,30.16,18,9,26,0.00
2012-11-13,51.0,36.8,24.0,31.0,26.3,22.0,94,69,35,30.55,30.44,7,3,11,0.00
2012-11-14,54.0,49.0,44.0,34.0,28.5,-99.9,60,48,38,30.50,30.38,8,5,12,0.00
2012-11-15,57.0,46.1,34.0,39.0,32.8,29.0,87,62,36,30.42,30.35,5,2,7,0.00
2012-11-16,63.0,43.2,27.0,41.0,33.9,26.0,98,74,40,30.49,30.42,5,1,6,0.00
2012-11-17,59.0,50.4,36.0,36.0,32.4,30.0,86,52,34,30.51,30.40,8,5,11,0.00
2012-11-18,63.0,46.5,32.0,37.0,32.4,29.0,93,63,27,30.42,30.28,10,5,14,0.00
2012-11-19,54.0,46.0,41.0,49.0,41.2,34.0,100,84,67,30.30,30.14,8,4,11,0.00
2012-11-20,60.0,46.9,35.0,51.0,44.3,35.0,100,92,73,30.26,30.11,9,5,13,0.00
2012-11-21,65.0,45.9,30.0,51.0,40.5,30.0,100,85,53,30.31,30.17,8,4,12,0.00
2012-11-22,70.0,58.2,44.0,55.0,47.2,37.0,91,68,49,30.18,29.91,20,12,29,0.00
2012-11-23,45.0,40.3,36.0,37.0,34.8,33.0,88,81,72,30.22,30.19,14,8,20,0.00
2012-11-24,36.0,32.4,30.0,24.0,22.3,20.0,72,66,53,30.19,30.00,8,6,12,0.00
2012-11-25,55.0,41.9,33.0,34.0,28.6,23.0,84,60,43,30.10,29.95,10,6,16,0.00
2012-11-26,42.0,31.7,22.0,29.0,25.3,15.0,99,78,57,30.45,30.09,15,7,22,0.00
2012-11-27,38.0,25.2,14.0,19.0,16.0,12.0,91,70,40,30.50,30.35,7,3,9,0.00
2012-11-28,50.0,34.4,22.0,31.0,24.6,17.0,88,69,46,30.46,30.29,6,3,10,0.00
2012-11-29,60.0,43.5,28.0,40.0,32.8,26.0,93,69,41,30.29,30.07,13,6,18,0.00
2012-11-30,63.0,48.9,40.0,44.0,37.5,31.0,91,66,48,30.13,30.09,15,6,21,0.00
2012-12-1,65.0,55.4,39.0,57.0,50.8,38.0,100,85,73,30.11,29.93,13,7,21,0.00
2012-12-2,71.0,59.8,52.0,57.0,53.7,48.0,100,82,51,30.07,29.94,9,4,14,0.00
2012-12-3,73.0,63.2,53.0,61.0,57.1,50.0,100,82,60,30.03,29.83,21,10,32,0.00
2012-12-4,60.0,49.3,37.0,50.0,39.7,32.0,92,71,40,30.34,30.02,10,4,14,0.00
2012-12-5,53.0,42.3,33.0,40.0,35.6,31.0,94,78,60,30.41,30.17,9,4,12,0.00
2012-12-6,54.0,43.4,35.0,45.0,36.9,-99.9,96,82,66,30.17,29.96,8,4,12,0.00
2012-12-7,48.0,45.2,43.0,46.0,44.0,41.0,100,95,84,29.97,29.87,9,5,12,0.00
2012-12-8,43.0,40.2,39.0,43.0,38.7,36.0,100,95,85,30.06,29.92,11,7,16,0.00
2012-12-9,44.0,40.2,27.0,44.0,38.7,22.0,100,94,81,29.99,29.85,15,8,24,0.00
2012-12-10,30.0,24.3,19.0,23.0,19.8,18.0,95,83,71,30.10,29.96,15,9,23,0.00
2012-12-11,41.0,27.8,18.0,26.0,21.1,17.0,96,77,53,30.23,30.08,10,5,14,0.00
2012-12-12,50.0,33.4,22.0,27.0,22.9,20.0,91,69,31,30.33,30.23,10,5,16,0.00
2012-12-13,55.0,38.1,26.0,29.0,25.3,22.0,87,63,33,30.30,30.16,14,6,20,0.00
2012-12-14,55.0,41.7,29.0,38.0,30.3,25.0,87,67,35,30.22,29.96,12,6,17,0.00
2012-12-15,59.0,49.4,42.0,48.0,45.1,37.0,99,86,64,29.95,29.61,17,10,27,0.00
2012-12-16,48.0,41.6,38.0,46.0,39.5,36.0,100,92,85,29.82,29.73,7,5,11,0.00
2012-12-17,38.0,35.0,31.0,36.0,34.0,31.0,100,96,89,29.83,29.75,6,3,9,0.00
2012-12-18,55.0,39.7,31.0,43.0,34.7,31.0,100,84,55,29.96,29.68,18,6,26,0.00
2012-12-19,44.0,35.6,28.0,44.0,34.2,28.0,100,95,84,30.04,29.51,14,7,22,0.00
2012-12-20,53.0,34.7,22.0,52.0,33.8,18.0,100,96,83,30.05,29.24,28,17,39,0.00
2012-12-21,31.0,22.4,15.0,22.0,16.5,13.0,97,78,61,30.34,30.05,18,9,26,0.00
2012-12-22,42.0,28.1,14.0,33.0,22.4,13.0,99,80,60,30.32,29.98,10,4,14,0.00
2012-12-23,40.0,31.3,24.0,31.0,27.1,23.0,98,85,67,30.03,29.93,8,4,11,0.00
2012-12-24,28.0,23.1,20.0,27.0,21.6,15.0,100,94,82,30.20,29.91,13,9,18,0.00
2012-12-25,26.0,23.2,20.0,23.0,20.2,17.0,97,88,80,30.33,30.16,15,10,23,0.00
2012-12-26,28.0,23.6,20.0,23.0,19.9,17.0,91,85,76,30.24,30.09,15,11,22,0.00
2012-12-27,32.0,26.4,21.0,26.0,22.9,20.0,96,87,71,30.24,30.07,11,6,16,0.00
2012-12-28,34.0,30.6,25.0,30.0,28.0,24.0,96,91,83,30.08,29.95,8,4,12,0.00
2012-12-29,30.0,24.0,17.0,29.0,21.2,16.0,100,89,79,30.35,29.99,15,8,22,0.00
2012-12-30,43.0,30.7,17.0,28.0,21.9,16.0,94,71,46,30.41,30.19,12,7,17,0.00
2012-12-31,36.0,31.5,22.0,33.0,27.6,19.0,100,87,57,30.21,30.12,13,4,19,0.00
2013-1-1,23.0,15.2,1.0,19.0,11.5,-1.0,99,86,66,30.32,30.18,0,0,0,0.00